Weather History for Terre Haute, IN

Change the Weather History Date:

Thursday, November 22, 2012

  Actual Average Record
Temperature  
Mean Temperature 50 °F 41 °F  
Max Temperature 64 °F 49 °F 73 °F (1990)
Min Temperature 35 °F 32 °F 11 °F (1964)
Degree Days  
Heating Degree Days 15 24  
Month to date heating degree days 453 439  
Since 1 July heating degree days 892 866  
Cooling Degree Days 0 0  
Month to date cooling degree days 0 0  
Year to date cooling degree days 1592 993  
Moisture  
Dew Point 39 °F    
Average Humidity 70    
Maximum Humidity 92    
Minimum Humidity 48    
Precipitation  
Precipitation 0.05 in 0.13 in 1.30 in (1990)
Month to date precipitation 0.37 2.82  
Year to date precipitation 24.99 41.09  
Sea Level Pressure  
Sea Level Pressure 30.12 in    
Wind  
Wind Speed 9 mph (South)    
Max Wind Speed 21 mph    
Max Gust Speed 26 mph    
Visibility 4 miles    
Events Fog , Rain    
T = Trace of Precipitation, MM = Missing Value Source: NWS Daily Summary

Daily Weather History Graph

Daily Weather History Graph

Search for Another Location

Airport:

Trip Planner

Search our weather history database for the weather conditions in past years. The results will help you decide how hot, cold, wet, or windy it might be!

Date:

Astronomy

Nov. 22, 2012 Rise Set
Actual Time 7:41 AM EST 5:29 PM EST
Civil Twilight 7:12 AM EST 5:58 PM EST
Nautical Twilight 6:39 AM EST 6:31 PM EST
Astronomical Twilight 6:07 AM EST 7:03 PM EST
Moon 2:13 PM EST (11/22) 2:02 AM EST (11/22)
Length of Visible Light 10h 46m
Length of Day
9h 47m
Waxing Gibbous, 71% of the Moon is Illuminated
Nov 22
Waxing Gibbous
Nov 28
Full
Dec 6
Last Quarter
Dec 13
New
Dec 20
First Quarter

Hourly Weather History & Observations

Time (EST) Temp. Windchill Dew Point Humidity Pressure Visibility Wind Dir Wind Speed Gust Speed Precip Events Conditions
12:53 AM 39.0 °F - 35.1 °F 86% 30.20 in 3.0 mi Calm Calm - N/A   Clear
1:00 AM 37.4 °F 34.9 °F 33.8 °F 87% 30.19 in 2.5 mi ESE 3.5 mph - N/A   Clear
1:27 AM 37.4 °F - 33.8 °F 87% 30.19 in 1.8 mi Calm Calm - N/A   Clear
1:40 AM 37.4 °F - 33.8 °F 87% 30.19 in 2.0 mi Calm Calm - N/A   Clear
1:53 AM 36.0 °F - 33.1 °F 89% 30.19 in 2.5 mi Calm Calm - N/A   Clear
2:53 AM 36.0 °F - 34.0 °F 93% 30.19 in 1.0 mi Calm Calm - N/A   Clear
3:53 AM 37.0 °F 33.3 °F 34.0 °F 89% 30.18 in 1.2 mi SE 4.6 mph - N/A   Scattered Clouds
4:53 AM 37.9 °F 35.5 °F 36.0 °F 93% 30.17 in 1.0 mi SSE 3.5 mph - N/A   Mist
5:01 AM 39.2 °F 37.0 °F 37.4 °F 93% 30.17 in 1.5 mi SSE 3.5 mph - N/A   Partly Cloudy
5:15 AM 37.4 °F - 35.6 °F 93% 30.17 in 0.8 mi Calm Calm - N/A   Mist
5:33 AM 39.2 °F 35.9 °F 37.4 °F 93% 30.17 in 1.2 mi SE 4.6 mph - N/A   Partly Cloudy
5:53 AM 36.0 °F 33.3 °F 34.0 °F 93% 30.18 in 1.0 mi SSE 3.5 mph - N/A   Mist
6:00 AM 35.6 °F - 33.8 °F 93% 30.17 in 0.5 mi Calm Calm - N/A Fog Fog
6:11 AM 37.4 °F 34.9 °F 35.6 °F 93% 30.17 in 1.2 mi SE 3.5 mph - N/A   Partly Cloudy
6:35 AM 35.6 °F - 33.8 °F 93% 30.17 in 0.8 mi Calm Calm - N/A   Clear
6:53 AM 36.0 °F 32.1 °F 34.0 °F 93% 30.17 in 0.8 mi SE 4.6 mph - N/A   Clear
7:01 AM 37.4 °F 33.8 °F 33.8 °F 87% 30.16 in 1.2 mi SE 4.6 mph - N/A   Clear
7:32 AM 37.4 °F 32.8 °F 33.8 °F 87% 30.17 in 2.0 mi SSE 5.8 mph - N/A   Clear
7:41 AM 37.4 °F 34.9 °F 33.8 °F 87% 30.17 in 1.2 mi SSE 3.5 mph - N/A   Clear
7:53 AM 37.0 °F 32.4 °F 34.0 °F 89% 30.18 in 1.0 mi SSE 5.8 mph - N/A   Clear
8:49 AM 42.8 °F 39.3 °F 39.2 °F 87% 30.16 in 2.0 mi SSE 5.8 mph - N/A   Clear
8:53 AM 43.0 °F 39.5 °F 39.9 °F 89% 30.17 in 4.0 mi SSE 5.8 mph - N/A   Clear
9:00 AM 44.6 °F 41.4 °F 39.2 °F 81% 30.15 in 2.5 mi SSE 5.8 mph - N/A   Clear
9:11 AM 46.4 °F 43.5 °F 41.0 °F 81% 30.15 in 3.0 mi SSE 5.8 mph - N/A   Haze
9:53 AM 51.1 °F - 44.1 °F 77% 30.15 in 4.0 mi South 5.8 mph - N/A   Haze
10:53 AM 57.0 °F - 45.0 °F 64% 30.15 in 7.0 mi SSW 12.7 mph - N/A   Clear
11:53 AM 60.1 °F - 45.0 °F 57% 30.12 in 8.0 mi South 13.8 mph - N/A   Clear
12:53 PM 61.0 °F - 45.0 °F 56% 30.09 in 10.0 mi South 13.8 mph 19.6 mph N/A   Clear
1:53 PM 63.0 °F - 44.1 °F 50% 30.06 in 10.0 mi South 15.0 mph 23.0 mph N/A   Clear
2:53 PM 62.1 °F - 43.0 °F 50% 30.04 in 10.0 mi SSW 17.3 mph 26.5 mph N/A   Clear
3:53 PM 63.0 °F - 43.0 °F 48% 30.03 in 10.0 mi South 10.4 mph - N/A   Clear
4:53 PM 61.0 °F - 43.0 °F 52% 30.01 in 10.0 mi South 15.0 mph 20.7 mph N/A   Clear
5:53 PM 59.0 °F - 42.1 °F 53% 30.01 in 10.0 mi South 11.5 mph - N/A   Clear
6:53 PM 57.9 °F - 42.1 °F 56% 30.00 in 10.0 mi South 12.7 mph - N/A   Clear
7:53 PM 59.0 °F - 42.1 °F 53% 29.98 in 10.0 mi South 15.0 mph 21.9 mph N/A   Clear
8:53 PM 59.0 °F - 42.1 °F 53% 29.98 in 10.0 mi SSW 13.8 mph 23.0 mph N/A   Mostly Cloudy
9:53 PM 59.0 °F - 43.0 °F 55% 30.00 in 10.0 mi SW 10.4 mph - 0.00 in Rain Light Rain
10:53 PM 55.0 °F - 50.0 °F 83% 30.00 in 4.0 mi SSW 15.0 mph 21.9 mph 0.02 in Rain Rain
11:53 PM 54.0 °F - 52.0 °F 93% 29.99 in 5.0 mi SW 13.8 mph 20.7 mph N/A Rain Rain